GEFSSE_500_meanwind_258.txt.gz
Wind_Speed
11 11 10 10 9 7 7 6 5 6 6 8 9 10 10 11 12 12 12 12 11 11 11 11 10 9 9 9 9 8 7 7 6 6 6 5 5 5 5 4 4 4 4
11 11 10 10 9 8 6 6 5 6 7 8 9 9 9 11 12 12 12 11 11 10 10 10 10 9 8 8 8 7 7 6 6 6 6 5 4 5 4 4 4 4 3
12 11 10 10 9 8 7 5 5 7 7 8 9 9 9 11 12 12 12 11 10 10 10 10 9 8 8 7 7 7 7 6 6 6 5 5 4 4 4 4 3 3 3
12 11 11 10 9 9 8 6 6 7 8 9 9 9 10 11 11 12 11 10 10 9 9 9 8 8 7 7 7 7 6 5 5 5 4 4 3 3 3 3 2 3 3
13 12 12 11 10 9 9 7 7 8 9 9 9 10 10 10 9 11 11 10 9 9 9 8 8 8 7 7 7 6 5 4 5 4 4 3 3 3 3 3 2 3 3
14 13 12 11 11 11 10 9 8 9 10 10 10 10 10 10 10 10 10 10 9 9 9 8 8 7 7 7 6 5 4 5 4 4 3 3 3 2 2 2 2 2 3
16 15 14 13 12 11 10 10 10 9 10 10 9 10 9 9 9 9 9 9 9 9 8 9 8 7 7 6 5 5 5 4 4 3 3 3 3 2 2 2 2 3 3
16 16 15 14 13 13 13 12 11 10 10 9 9 9 9 9 9 9 9 8 7 7 8 8 8 7 6 5 4 4 3 3 3 3 3 3 3 3 3 3 3 3 3
16 16 15 14 15 14 13 12 12 11 10 9 9 9 9 9 9 8 8 8 7 7 8 7 6 5 6 5 3 3 3 2 2 3 3 3 3 2 2 2 4 4 5
17 16 15 13 13 13 13 12 11 12 11 10 8 8 8 8 8 8 7 7 7 6 6 5 5 5 5 4 3 3 3 3 3 3 3 3 3 3 3 3 4 5 5
17 16 15 13 13 12 12 11 11 11 11 10 9 8 8 7 7 6 6 6 6 6 6 5 5 5 4 4 4 3 3 3 3 3 3 3 3 3 3 3 4 5 4
18 17 16 14 13 12 12 11 11 9 9 9 8 8 8 7 6 6 6 6 5 6 5 5 5 4 4 3 3 3 3 3 3 3 4 4 4 4 3 3 4 4 4
18 17 16 15 14 12 12 11 11 9 8 8 8 8 7 6 5 5 5 5 5 5 5 5 4 4 3 3 3 3 3 3 3 3 4 4 4 4 4 4 4 4 4
19 18 17 15 14 13 12 11 10 9 8 7 7 7 6 6 5 5 5 4 4 4 4 3 3 3 3 3 3 3 3 3 3 3 4 4 4 4 4 4 4 5 4
19 18 17 16 15 14 12 11 10 9 8 7 6 6 6 5 5 5 5 4 3 3 3 3 3 2 2 2 3 3 3 3 3 3 4 4 4 4 5 4 5 5 5
19 18 17 16 15 14 13 12 11 10 9 8 7 6 5 5 5 4 4 3 3 3 3 3 3 2 2 2 2 3 3 3 4 4 4 4 5 5 5 4 5 6 6
18 18 17 16 15 15 13 12 11 10 9 8 8 7 6 5 4 4 2 2 2 2 2 2 2 2 2 2 2 3 3 4 4 4 4 4 5 5 5 5 5 5 6
18 18 17 16 15 14 13 13 11 10 9 8 8 7 6 5 4 3 2 2 2 2 2 2 2 2 2 2 2 3 3 4 4 4 4 4 4 4 4 5 5 5 5
17 17 17 16 16 14 13 12 12 10 10 9 8 7 6 4 4 4 3 2 2 1 1 1 2 2 2 2 3 3 4 4 4 4 4 4 4 4 5 5 5 6 5
17 17 17 16 15 15 14 13 12 11 10 9 9 8 7 6 5 4 3 2 2 0 1 1 2 2 2 2 3 4 4 4 4 4 4 4 5 5 6 6 6 6 6
17 17 17 16 15 15 14 14 13 12 10 9 9 8 8 7 6 4 3 2 2 1 1 1 2 2 2 3 4 4 4 4 4 5 5 5 6 6 6 6 6 7 6
16 16 16 15 14 14 13 13 12 11 10 9 8 8 8 7 6 5 4 3 3 2 1 2 2 2 2 3 3 3 4 5 5 5 6 6 6 7 7 7 6 6 7
14 14 14 14 14 13 12 12 12 12 10 9 8 8 8 6 6 6 5 4 3 3 2 3 3 2 2 2 2 2 3 4 5 6 6 7 7 8 8 8 8 7 8
13 13 13 13 13 13 13 12 12 11 10 9 8 8 9 7 6 6 5 4 4 4 3 3 4 4 3 2 2 2 3 3 4 5 6 7 8 8 8 8 8 9 10
13 13 13 12 13 12 13 12 11 11 10 10 9 9 8 6 6 6 6 6 5 4 4 4 4 4 3 2 2 2 3 4 5 5 6 7 7 8 8 8 8 9 10
12 12 12 12 12 12 12 12 10 10 10 11 11 10 9 6 6 6 6 5 5 5 5 5 5 5 4 3 3 4 4 4 5 6 6 6 7 7 8 9 9 9 10

GEFSSE_500_meanwind_264.txt.gz
Wind_Speed
9 9 8 8 7 7 7 8 8 8 9 9 10 9 10 10 10 10 10 10 10 9 9 9 8 8 8 8 8 6 6 6 5 4 4 4 4 3 3 3 2 2 2
9 9 8 9 9 8 8 8 8 9 9 9 9 10 10 11 11 11 11 10 10 10 9 8 8 7 7 7 7 6 5 5 4 3 3 3 4 3 3 2 2 2 2
9 9 9 9 10 9 8 9 9 10 10 10 10 10 10 11 12 11 11 10 10 10 9 8 8 8 7 7 6 5 5 5 4 3 3 3 3 3 2 2 2 2 2
10 9 9 10 9 9 9 9 9 9 9 10 10 10 11 11 11 11 10 9 9 9 9 8 8 7 8 7 6 5 5 4 4 4 3 2 2 2 2 2 1 1 1
11 10 10 10 10 9 8 8 9 9 10 10 10 9 10 10 10 10 9 9 9 9 8 7 7 7 7 6 6 5 5 5 4 3 3 3 2 2 2 2 1 1 1
12 12 12 11 12 10 9 9 9 10 11 10 9 8 9 10 10 9 9 8 8 8 8 8 8 6 5 5 5 5 5 4 4 3 3 3 2 2 2 2 1 1 1
15 14 13 13 12 11 11 11 11 11 11 11 10 9 9 10 10 9 9 8 7 7 8 8 8 7 5 5 5 5 4 3 3 4 3 3 2 2 2 2 2 1 1
16 15 14 14 13 12 12 12 11 11 10 10 9 9 10 10 9 9 8 8 7 7 7 7 7 6 6 5 5 5 4 3 3 4 4 3 3 3 3 3 2 2 1
16 16 15 14 13 13 12 12 10 10 9 9 8 8 8 8 7 7 7 7 7 7 7 7 7 6 6 6 6 5 3 3 3 3 3 3 3 3 3 3 3 3 2
17 16 15 14 13 12 12 12 11 10 9 9 8 8 8 7 7 6 6 7 7 7 6 6 6 6 5 5 5 4 4 4 3 3 2 2 3 2 3 3 3 4 3
17 16 15 14 13 13 12 12 11 10 9 9 9 9 8 8 7 6 5 5 5 5 5 5 6 6 5 5 4 4 4 4 3 3 3 3 3 3 3 3 4 4 4
17 16 16 15 14 13 12 11 10 9 8 8 9 8 8 7 7 6 6 5 5 5 5 5 5 4 4 4 4 4 4 4 3 3 3 4 3 3 3 4 4 4 4
16 15 15 15 13 12 11 11 10 9 9 8 8 7 7 6 6 5 5 5 5 5 5 5 4 4 4 4 4 4 4 4 4 4 3 3 3 3 3 4 4 4 4
16 15 14 14 13 12 12 10 10 9 8 8 8 7 6 5 5 4 4 4 4 4 4 4 4 4 4 3 4 4 4 4 4 4 4 4 4 4 4 4 5 5 5
17 16 15 14 12 12 11 11 10 9 8 7 7 6 6 5 4 4 4 3 3 3 2 3 4 3 3 3 3 3 4 5 5 5 5 5 4 4 4 5 6 6 6
18 17 16 14 12 11 11 11 10 9 7 6 5 5 4 3 3 2 1 2 2 2 2 2 2 2 2 2 3 4 4 5 5 5 5 5 5 5 5 6 7 7 7
18 17 16 14 13 12 11 10 10 9 7 7 5 4 4 3 2 1 1 1 1 2 2 2 2 1 2 3 3 4 4 5 5 5 5 5 6 6 5 5 6 6 7
17 17 17 16 14 13 11 11 11 10 8 6 6 4 3 2 2 2 1 1 0 1 1 2 2 2 2 3 4 4 5 6 6 6 6 6 6 6 6 6 6 7 7
16 16 16 16 15 14 13 11 11 10 9 8 7 6 4 3 2 1 1 1 1 1 1 1 2 3 3 4 4 4 4 5 6 6 6 6 7 7 7 7 7 7 8
17 16 16 15 15 14 14 13 11 11 10 9 8 7 5 4 3 2 1 1 1 2 2 2 2 2 3 4 4 4 4 5 6 6 7 7 7 7 7 8 8 8 9
16 16 15 15 14 14 14 13 13 12 10 10 9 8 6 6 5 4 2 2 2 2 2 2 2 2 3 4 4 4 4 5 5 6 7 8 9 9 9 9 10 9 9
16 15 15 14 14 14 14 14 13 12 11 11 10 8 7 6 6 5 4 3 3 2 2 2 3 2 3 3 4 4 4 5 6 7 7 8 9 10 10 10 10 11 11
15 15 14 14 14 14 13 13 13 12 12 11 10 9 8 7 6 6 5 5 4 3 3 3 2 2 2 2 3 4 5 6 6 7 8 9 9 9 10 10 10 10 11
13 14 14 13 13 14 13 12 12 12 11 10 9 8 8 8 7 6 5 5 5 4 4 4 3 3 3 3 3 4 4 5 6 6 7 8 9 9 10 11 11 12 12
11 12 13 13 13 13 13 12 12 11 11 11 8 8 8 7 7 6 6 5 5 5 4 4 4 4 4 4 5 5 5 6 6 7 7 8 9 10 10 10 11 13 13
10 11 11 11 11 12 12 12 12 12 12 11 9 8 7 6 6 6 5 5 5 5 4 4 4 5 5 5 6 6 7 7 7 7 8 8 9 10 11 11 12 13 14

GEFSSE_500_meanwind_270.txt.gz
Wind_Speed
8 8 7 8 8 9 9 9 9 10 11 12 13 13 13 14 14 14 14 13 12 12 11 10 10 10 9 9 9 8 8 7 6 5 5 4 4 3 3 3 3 3 3
8 8 7 8 8 9 9 9 10 11 12 13 14 14 13 13 14 14 14 13 12 12 11 10 10 9 9 8 8 8 7 7 6 5 4 4 4 3 3 3 3 3 3
8 8 8 7 8 8 9 9 9 10 12 13 14 14 13 13 13 14 14 13 12 11 10 10 10 9 9 8 8 7 7 7 6 5 5 5 4 3 3 3 2 2 2
8 8 7 7 8 8 9 10 10 10 11 12 13 13 13 13 12 13 13 12 11 11 10 10 9 9 8 8 7 7 7 6 6 5 4 4 3 3 3 2 1 1 1
9 8 8 8 7 8 9 10 10 10 11 11 12 12 12 12 11 12 12 11 11 11 11 10 9 8 7 8 7 7 7 6 6 5 4 4 3 3 2 2 1 1 1
10 10 9 8 8 9 8 9 10 10 11 11 12 12 12 11 11 11 11 10 10 10 10 9 8 8 7 8 7 7 7 6 5 5 5 4 3 2 2 2 1 1 1
12 11 10 8 8 10 9 9 10 10 10 11 11 12 11 10 10 10 10 9 9 9 9 9 8 7 6 6 7 7 7 6 5 5 4 3 3 2 2 2 2 1 1
13 12 11 11 10 10 10 10 10 10 10 10 11 10 10 10 9 9 9 9 9 8 8 8 7 6 6 6 7 7 7 6 5 5 4 3 2 2 2 2 2 2 2
14 13 13 12 11 11 11 10 10 10 10 9 9 9 9 9 9 8 8 8 8 8 8 7 7 7 7 6 6 6 6 6 5 4 3 2 2 2 2 2 3 3 3
14 13 13 12 11 10 11 11 11 10 9 9 8 8 9 8 8 8 8 8 7 7 8 8 7 6 6 7 6 6 6 6 5 4 3 3 2 2 2 2 3 3 3
15 14 13 13 12 11 11 11 11 10 9 9 8 7 7 8 7 7 7 7 6 8 8 7 6 6 6 6 5 5 5 5 4 4 4 3 3 3 2 2 3 4 3
14 14 13 12 12 11 11 11 11 11 10 10 8 7 7 7 6 6 6 7 7 7 6 6 5 5 6 6 5 5 5 4 3 3 3 3 4 3 2 3 4 4 4
14 14 13 12 11 11 10 10 10 10 9 9 8 8 7 6 5 6 6 5 6 6 6 6 5 5 5 5 5 5 5 4 3 3 4 4 4 4 4 4 4 4 4
14 13 13 13 12 11 10 10 9 9 9 8 7 6 6 5 6 6 5 4 4 5 6 6 5 4 4 5 5 5 4 4 4 4 4 5 4 4 5 5 5 5 4
14 13 13 12 12 11 10 9 9 8 8 8 7 6 5 5 5 3 2 3 3 4 5 5 4 4 4 4 5 5 4 4 4 5 5 5 5 5 6 6 6 6 6
14 13 13 12 12 11 10 9 9 8 7 7 6 5 5 4 3 2 2 2 2 3 4 5 4 4 4 4 4 4 4 4 5 5 6 6 6 6 7 7 7 7 7
14 14 13 12 11 11 10 10 9 7 6 6 5 5 4 3 2 1 1 0 1 2 3 4 4 5 4 4 4 4 4 5 5 6 6 6 7 7 7 7 7 7 8
15 14 13 12 11 11 10 9 8 7 6 5 5 4 4 3 1 1 1 1 1 2 2 3 4 4 4 4 4 4 5 5 6 6 7 7 7 7 7 7 7 7 8
14 14 13 12 11 10 10 9 8 7 6 5 4 4 3 3 2 1 1 1 1 1 1 2 3 3 4 5 5 5 5 6 6 5 6 6 7 7 7 7 8 8 8
13 13 13 12 11 10 10 9 7 7 6 5 5 4 4 3 2 1 1 0 1 1 2 2 3 3 3 4 5 5 5 5 5 5 6 6 6 7 7 8 8 8 9
12 12 12 12 12 11 10 9 8 7 7 6 5 5 4 4 3 3 2 1 0 1 1 2 2 2 3 3 4 5 5 5 5 6 6 6 7 7 8 8 8 9 10
11 11 11 11 11 11 11 10 9 7 7 7 6 6 5 4 4 3 3 2 1 0 1 1 1 1 2 2 3 4 5 5 5 6 7 7 8 8 9 9 9 10 10
10 10 10 11 11 11 11 10 9 8 7 7 6 6 5 5 4 4 4 3 2 1 0 0 1 1 1 2 3 4 4 5 6 6 7 8 8 9 10 10 9 9 11
10 10 10 10 10 10 11 11 10 9 8 7 6 6 5 5 5 4 3 3 2 2 0 0 1 1 2 2 3 4 5 6 7 7 7 8 8 9 9 10 10 11 11
9 9 9 9 9 10 10 11 11 10 10 9 7 7 6 6 5 4 3 3 2 2 1 1 2 2 3 4 4 5 6 7 7 8 8 8 8 9 9 10 10 11 11
8 8 8 8 8 9 10 10 10 9 9 9 8 7 7 6 6 5 4 3 3 3 3 2 3 3 4 5 5 6 6 7 7 8 8 9 9 9 10 10 11 12 12

GEFSSE_500_meanwind_276.txt.gz
Wind_Speed
3 3 3 2 3 4 4 6 7 8 7 8 9 10 9 10 10 11 11 11 11 10 9 9 9 9 9 8 8 8 7 7 6 5 5 4 4 4 4 5 5 5 5
4 3 3 2 3 3 4 5 5 7 8 8 9 10 10 11 11 11 11 10 10 9 9 9 9 8 8 7 7 7 7 6 5 4 4 4 3 3 4 5 5 5 5
5 4 4 3 4 4 4 5 5 6 7 8 9 10 11 11 11 11 11 10 9 9 9 9 8 8 8 7 6 6 6 5 5 4 4 4 3 4 4 4 4 4 4
6 5 4 4 4 4 4 5 5 6 7 8 9 10 10 10 10 9 10 9 9 9 8 9 8 8 8 7 7 6 5 5 4 4 4 3 3 3 3 3 3 4 4
7 6 5 5 5 5 5 5 6 6 7 7 8 9 9 9 9 9 9 10 10 9 8 8 8 8 7 7 6 5 5 4 4 4 3 3 3 2 2 3 3 3 3
9 7 6 6 6 6 6 6 6 6 7 7 7 8 8 8 9 8 9 8 8 8 7 7 8 8 7 6 6 5 5 5 4 4 3 2 2 2 2 3 3 3 2
12 10 9 7 6 7 7 7 7 7 7 6 6 7 7 8 7 7 7 7 6 6 6 6 7 7 6 5 5 5 5 4 4 4 3 2 3 2 2 2 3 3 2
13 12 11 9 8 7 7 7 7 6 6 5 6 6 6 6 6 6 6 6 5 5 5 5 5 6 6 5 5 5 5 4 4 3 3 2 2 2 2 2 2 2 1
13 12 12 11 10 9 8 8 8 7 6 6 5 5 6 6 6 6 6 6 6 5 5 5 5 5 5 5 5 5 4 3 3 3 2 1 1 1 1 1 1 1 1
13 13 12 12 11 10 9 8 8 8 7 6 5 5 6 6 4 4 5 6 5 6 6 6 5 5 5 5 5 4 4 3 3 2 1 1 1 1 1 1 1 1 1
14 14 12 11 11 10 9 8 8 8 8 7 6 6 6 5 4 3 3 5 5 6 5 5 4 5 6 6 5 4 4 3 2 2 2 2 2 2 2 2 2 2 2
14 14 13 12 11 10 9 9 9 8 7 8 6 5 5 4 3 3 4 3 4 5 5 5 5 6 6 6 6 5 4 3 2 2 2 2 3 3 2 2 2 3 3
15 14 13 12 11 10 9 9 8 8 7 7 6 4 4 3 3 2 3 3 4 4 4 4 4 5 5 5 5 4 3 3 2 2 2 3 4 3 3 3 3 3 3
15 15 13 12 11 10 9 8 9 9 8 7 6 5 4 4 3 2 2 2 2 3 3 3 3 4 5 4 4 3 3 3 2 3 3 3 4 4 4 3 3 4 4
15 14 13 11 11 11 10 10 9 8 8 8 6 5 4 4 3 3 2 1 1 2 1 2 3 4 5 4 4 4 3 3 3 2 3 4 4 4 4 4 4 4 5
15 15 14 12 12 11 10 9 9 7 7 7 7 6 5 4 2 2 2 1 0 1 0 1 3 4 5 5 5 4 4 4 3 3 3 4 4 5 5 5 5 5 5
15 15 14 13 11 11 10 10 10 9 7 7 7 6 5 3 2 1 1 1 1 1 1 2 2 3 4 5 5 4 3 3 4 4 4 4 4 4 5 5 5 6 6
15 15 14 13 12 10 10 9 9 9 8 7 6 6 5 4 3 2 1 1 1 2 2 2 2 3 3 4 4 4 3 4 4 5 5 5 5 5 5 6 6 7 7
15 15 14 14 13 11 9 9 8 8 8 7 7 6 5 5 4 3 2 2 3 4 4 4 4 3 2 3 3 4 4 5 5 5 5 5 5 5 5 6 7 8 8
14 14 14 14 13 12 10 10 9 9 9 8 7 7 6 5 5 4 3 3 4 4 4 4 4 3 3 3 2 3 3 4 4 5 5 5 5 6 6 7 7 8 8
13 13 14 14 13 13 12 10 10 9 9 8 7 7 7 6 5 5 4 4 3 3 4 4 4 3 3 2 2 2 2 3 4 5 5 5 6 7 7 8 9 9 9
12 12 13 14 14 14 13 12 11 10 10 9 8 8 7 7 6 5 5 4 4 4 3 3 2 3 3 3 3 3 3 4 4 5 6 6 7 7 8 9 9 10 10
11 11 12 12 13 13 14 14 13 12 11 10 9 8 8 7 7 6 5 5 5 4 4 4 3 3 3 3 4 4 5 5 6 6 7 7 7 8 9 9 10 10 10
10 10 11 11 12 13 13 14 14 13 12 11 10 9 8 8 7 6 6 5 5 5 5 5 4 4 4 5 5 5 6 6 6 6 7 8 9 9 9 10 10 11 12
9 9 10 10 11 12 12 13 13 13 12 12 11 10 9 9 8 7 6 6 6 5 5 5 5 5 5 5 6 6 7 7 7 7 8 9 10 10 10 10 11 12 12
9 9 9 9 10 11 12 12 13 12 12 12 12 11 9 9 8 7 7 7 7 6 6 6 6 6 6 6 7 7 8 9 10 9 9 9 10 10 10 10 11 12 13